Bartow, FL

12:38 AM EDT on September 24, 2017 (GMT -0400)
Bartow Municipal

Weather History for KBOW - December, 2014

Change the Weather History Date:

Monday, December 29, 2014

  Actual Average Record
Temperature  
Mean Temperature 68 °F -  
Max Temperature 80 °F 74 °F 86 °F (1981)
Min Temperature 57 °F 51 °F 24 °F (2010)
Cooling Degree Days 4    
Growing Degree Days 18 (Base 50)    
Moisture  
Dew Point 63 °F    
Average Humidity 87    
Maximum Humidity 100    
Minimum Humidity 58    
Precipitation  
Precipitation 0.00 in - - ()
Sea Level Pressure  
Sea Level Pressure 30.11 in    
Wind  
Wind Speed 2 mph (SW)    
Max Wind Speed 13 mph    
Max Gust Speed -    
Visibility 8 miles    
Events Fog    
Averages and records for this station are not official NWS values.
T = Trace of Precipitation, MM = Missing Value Source: NWS Daily Summary

Daily Weather History Graph

Daily Weather History Graph

Search for Another Location

Airport or City:

Trip Planner

Search our weather history database for the weather conditions in past years. The results will help you decide how hot, cold, wet, or windy it might be!

Date:

Astronomy

Dec. 29, 2014 Rise Set
Actual Time 7:17 AM EST 5:41 PM EST
Civil Twilight 6:51 AM EST 6:06 PM EST
Nautical Twilight 6:22 AM EST 6:35 PM EST
Astronomical Twilight 5:53 AM EST 7:04 PM EST
Moon 12:55 PM EST (12/29) 12:57 AM EST (12/29)
Length of Visible Light 11h 14m
Length of Day
10h 23m
First Quarter, 60% of the Moon is Illuminated
Dec 29
First Quarter
Jan 4
Full
Jan 13
Last Quarter
Jan 20
New
Jan 26
First Quarter

Hourly Weather History & Observations

Time (EST) Temp. Heat Index Dew Point Humidity Pressure Visibility Wind Dir Wind Speed Gust Speed Precip Events Conditions
12:15 AM 60.8 °F - 60.8 °F 100% 30.14 in 10.0 mi Calm Calm - N/A   Overcast
12:35 AM 60.8 °F - 60.8 °F 100% 30.14 in 10.0 mi Calm Calm - N/A   Mostly Cloudy
12:55 AM 60.8 °F - 60.8 °F 100% 30.13 in 10.0 mi Calm Calm - N/A   Partly Cloudy
1:15 AM 60.8 °F - 60.8 °F 100% 30.13 in 10.0 mi Calm Calm - N/A   Clear
1:35 AM 60.8 °F - 60.8 °F 100% 30.13 in 7.0 mi Calm Calm - N/A   Clear
1:55 AM 60.8 °F - 60.8 °F 100% 30.12 in 3.0 mi ESE 3.5 mph - N/A   Clear
2:15 AM 60.8 °F - 60.8 °F 100% 30.12 in 5.0 mi Calm Calm - N/A   Clear
2:35 AM 62.6 °F - - N/A% 30.12 in 2.5 mi Calm Calm - N/A   Clear
2:55 AM 62.6 °F - - N/A% 30.12 in 1.5 mi North - - N/A   Clear
3:15 AM 57.2 °F - 57.2 °F 100% 30.11 in 1.0 mi Calm Calm - N/A   Clear
3:35 AM 57.2 °F - 57.2 °F 100% 30.11 in 5.0 mi North - - N/A   Clear
3:55 AM 57.2 °F - 57.2 °F 100% 30.10 in 1.5 mi Calm Calm - N/A   Mostly Cloudy
4:15 AM 59.0 °F - 59.0 °F 100% 30.10 in 9.0 mi Calm Calm - N/A   Scattered Clouds
4:35 AM 57.2 °F - 57.2 °F 100% 30.09 in 8.0 mi SE 4.6 mph - N/A   Partly Cloudy
4:55 AM 60.8 °F - - N/A% 30.09 in 5.0 mi SE 4.6 mph - N/A   Haze
5:15 AM 60.8 °F - - N/A% 30.09 in 4.0 mi Calm Calm - N/A   Haze
5:35 AM 60.8 °F - - N/A% 30.10 in 9.0 mi Calm Calm - N/A   Clear
5:55 AM 57.2 °F - - N/A% 30.09 in 0.2 mi Calm Calm - N/A Fog Fog
6:15 AM 59.0 °F - - N/A% 30.10 in 1.2 mi Calm Calm - N/A   Scattered Clouds
6:35 AM 59.0 °F - - N/A% 30.12 in 10.0 mi Calm Calm - N/A   Mostly Cloudy
6:55 AM 57.2 °F - 57.2 °F 100% 30.12 in 10.0 mi Calm Calm - N/A   Mostly Cloudy
7:15 AM 57.2 °F - 57.2 °F 100% 30.12 in 2.5 mi SSE 5.8 mph - N/A   Scattered Clouds
7:47 AM 62.6 °F - - N/A% 30.13 in 5.0 mi Calm Calm - N/A   Mostly Cloudy
8:55 AM 66.2 °F - 66.2 °F 100% 30.15 in 10.0 mi South 5.8 mph - N/A   Partly Cloudy
9:50 AM 71.6 °F - 66.2 °F 83% 30.16 in 10.0 mi SSE 5.8 mph - N/A   Partly Cloudy
10:55 AM 75.2 °F - 66.2 °F 73% 30.16 in 10.0 mi SSW 12.7 mph - N/A   Mostly Cloudy
11:47 AM 78.8 °F - 66.2 °F 65% 30.15 in 10.0 mi SSW 9.2 mph - N/A   Mostly Cloudy
12:51 PM 80.6 °F 82.3 °F 64.4 °F 58% 30.11 in 10.0 mi WSW 11.5 mph - N/A   Mostly Cloudy
1:55 PM 80.6 °F 82.3 °F 64.4 °F 58% 30.08 in 10.0 mi SW 10.4 mph - N/A   Mostly Cloudy
2:47 PM 78.8 °F - 64.4 °F 61% 30.07 in 10.0 mi WSW 12.7 mph - N/A   Mostly Cloudy
3:56 PM 80.6 °F 82.3 °F 64.4 °F 58% 30.06 in 10.0 mi SSW 10.4 mph - N/A   Scattered Clouds
4:47 PM 78.8 °F - 64.4 °F 61% 30.07 in 10.0 mi WSW 9.2 mph - N/A   Scattered Clouds
5:35 PM 77.0 °F - 62.6 °F 61% 30.07 in 10.0 mi WSW 5.8 mph - N/A   Clear
5:55 PM 75.2 °F - 62.6 °F 65% 30.08 in 10.0 mi WSW 3.5 mph - N/A   Clear
6:15 PM 75.2 °F - 62.6 °F 65% 30.08 in 10.0 mi West 4.6 mph - N/A   Clear
6:35 PM 73.4 °F - 64.4 °F 73% 30.09 in 10.0 mi West 3.5 mph - N/A   Clear
6:55 PM 73.4 °F - 64.4 °F 73% 30.10 in 10.0 mi West 5.8 mph - N/A   Clear
7:15 PM 71.6 °F - 66.2 °F 83% 30.10 in 10.0 mi West 4.6 mph - N/A   Clear
7:35 PM 71.6 °F - 66.2 °F 83% 30.10 in 10.0 mi West 4.6 mph - N/A   Clear
7:55 PM 71.6 °F - 64.4 °F 78% 30.11 in 10.0 mi West 3.5 mph - N/A   Clear
8:15 PM 68.0 °F - 66.2 °F 94% 30.11 in 10.0 mi West 3.5 mph - N/A   Clear
8:35 PM 66.2 °F - 64.4 °F 94% 30.11 in 10.0 mi WSW 3.5 mph - N/A   Clear
8:55 PM 69.8 °F - 64.4 °F 83% 30.12 in 10.0 mi West 4.6 mph - N/A   Clear
9:15 PM 66.2 °F - 62.6 °F 88% 30.13 in 10.0 mi Calm Calm - N/A   Clear
9:35 PM 66.2 °F - 66.2 °F 100% 30.13 in 10.0 mi Calm Calm - N/A   Clear
9:55 PM 64.4 °F - 64.4 °F 100% 30.12 in 10.0 mi Calm Calm - N/A   Clear
10:15 PM 64.4 °F - 64.4 °F 100% 30.12 in 10.0 mi Calm Calm - N/A   Clear
10:35 PM 62.6 °F - 62.6 °F 100% 30.12 in 10.0 mi Calm Calm - N/A   Clear
10:55 PM 66.2 °F - 66.2 °F 100% 30.12 in 10.0 mi Calm Calm - N/A   Clear
11:15 PM 62.6 °F - 62.6 °F 100% 30.12 in 10.0 mi SW 3.5 mph - N/A   Clear
11:35 PM 62.6 °F - 62.6 °F 100% 30.11 in 10.0 mi Calm Calm - N/A   Clear
11:55 PM 62.6 °F - 62.6 °F 100% 30.12 in 10.0 mi Calm Calm - N/A   Clear